Location: Bayshore Village Mobile Home Park
(26.6945°N, 81.8642°W)
Time: 05:58:39
(UTC+00:00)

Daily predictions for brighter satellites

Satellite Brightness Start Highest point End
(mag) Time Altitude Azimuth Time Altitude Azimuth Time Altitude Azimuth
NOSS 3-2 (A) 3.4 00:38:01 10° SSW 00:43:18 78° WNW 00:49:08 10° NNE
NOSS 3-2 (C) 3.3 00:38:57 10° S 00:44:03 51° ESE 00:49:37 10° NE
Helios 1A Rocket 4.1 00:41:08 10° SE 00:44:34 26° ENE 00:47:58 10° NNE
Meteor 1-23 Rocket 4.4 00:39:17 10° S 00:44:54 56° E 00:50:28 10° NNE
ERS-2 2.8 00:44:23 10° NE 00:47:41 32° E 00:50:58 10° SSE
SAR-Lupe-1 4.1 00:44:16 10° NNE 00:47:48 60° E 00:51:19 10° S
Cosmos 1821 Rocket 4.5 00:42:25 10° NNE 00:48:10 41° E 00:53:50 10° SSE
Genesis I 3.7 00:45:07 10° S 00:48:36 37° ESE 00:52:09 10° NE
USA 234 3.7 00:42:35 10° SSE 00:49:02 62° SW 00:55:31 10° NW
Meteor 1-12 Rocket 4.3 00:48:40 10° N 00:54:17 65° E 00:59:55 10° SSE
Cosmos 1066 Rocket 4.5 00:51:55 10° SSW 00:57:19 70° W 01:02:40 10° N
Sich 1 Rocket 4.3 00:53:43 10° NNE 00:57:42 33° E 01:01:39 10° SSE
SJ-6B 3.9 00:55:11 10° SE 00:58:47 30° ENE 01:02:23 10° NNE
MetOp-A 4.3 00:54:15 10° SSE 00:59:28 58° ENE 01:04:43 10° N
USA 186 2.0 00:57:33 10° SE 00:59:57 35° ENE 01:02:31 10° N
Cosmos 2084 4.0 00:56:14 10° NW 01:00:43 66° WSW 01:05:15 10° SSE
Timation 2 Rocket 4.1 00:54:43 10° NNW 01:00:56 87° WSW 01:07:25 10° SSE
SL-16 R/B 2.8 00:58:44 10° SSE 01:03:44 33° ESE 01:08:45 10° NE
Cosmos 2360 Rocket 3.9 01:03:41 11° ESE 01:05:25 12° E 01:07:31 10° ENE
Cosmos 2322 Rocket 3.1 01:01:55 10° SSE 01:06:31 26° ESE 01:11:09 10° NE
Delta 128 3.6 01:03:23 10° W 01:07:51 80° N 01:12:28 10° E
Cosmos 1689 Rocket 4.2 01:05:37 10° NNW 01:08:07 29° WNW 01:10:37 10° SW
Cosmos 2082 4.0 01:02:54 10° N 01:08:31 53° ENE 01:13:49 11° SE
BREEZE-M DEB (TANK) 3.2 01:06:58 10° WSW 01:09:58 44° NW 01:12:12 10° NNE
ASTRO E2 3.3 01:07:12 10° SW 01:10:49 34° SSE 01:14:17 11° E
Ariane Rocket 4.0 01:10:36 13° SE 01:14:17 29° ENE 01:18:37 10° NNE
ATLAS 2A CENTAUR R/B 4.4 00:43:53 10° SW 01:16:00 47° S 01:23:10 12° E
OBJECT-B 0.9 01:13:23 12° SSE 01:16:11 54° ENE 01:19:19 10° N
Timation 1 Rocket 4.5 01:10:43 10° NNW 01:16:43 81° WSW 01:22:42 10° SSE
USA 238 DEB 4.3 01:12:36 10° SW 01:18:56 60° WNW 01:25:31 10° NNE
USA 238 4.2 01:12:42 10° SW 01:19:02 60° WNW 01:25:37 10° NNE
Cosmos 1980 Rocket 4.2 01:19:42 10° SW 01:24:41 32° WNW 01:29:40 10° N
Cosmos 1805 3.1 01:20:52 10° N 01:24:45 83° E 01:28:26 11° S
Aureole 2 Rocket 2.1 01:22:39 10° N 01:24:52 35° ENE 01:25:19 31° ESE
Cosmos 220 Rocket 3.9 01:20:58 10° S 01:25:18 78° ESE 01:29:35 10° NNE
NATO 3D Rocket 3.6 01:21:07 10° WSW 01:25:40 46° S 01:28:43 20° ESE
Cosmos 1378 Rocket 3.8 01:21:46 10° SSE 01:25:55 48° E 01:30:06 10° NNE
BREEZE-M DEB (TANK) 1.1 01:23:53 10° SW 01:27:05 89° NW 01:29:23 10° NE
Cosmos 1934 Rocket 4.3 01:21:21 10° N 01:27:13 46° E 01:31:54 16° SSE
Hubble Space Telescope 1.8 01:24:02 10° W 01:27:46 34° SSW 01:29:56 20° SSE
Okean 2 3.8 01:25:37 15° SSE 01:28:40 41° E 01:32:30 10° NNE
USA 215 4.3 01:24:32 10° ENE 01:29:10 21° ESE 01:33:47 10° SSE
Cosmos 1726 4.1 01:28:02 10° NE 01:29:47 13° ENE 01:29:47 13° ENE
CENTAUR R/B 3.4 01:24:57 10° SW 01:30:12 48° WNW 01:36:18 10° NNE
Lacrosse 5 rocket 1.8 01:31:06 10° S 01:34:31 30° ESE 01:37:48 10° ENE
PEGASUS R/B 4.4 01:33:13 18° S 01:34:56 53° WSW 01:38:34 10° NNW
Yuri Rocket 4.3 01:29:49 10° SW 01:35:33 50° SSE 01:43:33 10° E
Cosmos 1140 Rocket 3.8 01:30:54 10° N 01:35:58 48° ENE 01:38:52 24° SE
Cosmos 1733 3.2 01:33:46 10° N 01:37:37 80° W 01:40:37 16° S
Cosmos 292 Rocket 3.7 01:34:40 10° S 01:39:27 65° ESE 01:44:14 10° NNE
Cosmos 1707 3.4 01:38:35 29° ESE 01:39:34 34° E 01:43:05 10° NNE
Meteor 2-10 4.3 01:44:30 10° N 01:49:24 48° E 01:51:31 31° SE
Meteor 1-22 Rocket 4.2 01:44:11 10° N 01:49:58 69° E 01:53:18 25° SSE
Cosmos 2285 Rocket 4.2 01:46:22 10° SSW 01:52:47 78° WNW 01:59:15 10° NNE
Meteor 2-20 4.4 01:50:33 17° S 01:55:21 64° E 02:01:22 10° NNE
Okean 2 Rocket 3.5 01:51:07 10° NNW 01:55:35 64° W 01:58:45 19° S
Cosmos 1452 Rocket 3.4 01:51:22 10° S 01:56:35 69° ESE 02:01:51 10° NNE
Resurs 01 Rocket 2.0 01:56:20 37° ESE 01:57:23 45° ENE 02:01:35 10° N
Cosmos 1605 Rocket 4.2 01:52:18 10° N 01:58:32 53° E 02:01:22 31° SE
Cosmos 1400 Rocket 3.3 01:57:58 10° NNW 02:01:44 53° W 02:03:39 26° SSW
IGS 5A 3.7 02:01:55 44° ESE 02:02:31 48° ENE 02:06:32 10° N
Cosmos 2263 Rocket 2.4 01:59:29 10° N 02:05:02 53° ENE 02:06:50 38° ESE
Cosmos 2151 Rocket 3.8 02:00:50 10° NNW 02:05:11 65° W 02:07:24 28° SSW
In-Cosmos 22 4.1 02:04:33 36° SSE 02:06:28 57° E 02:11:36 10° NNE
SPOT 1/Viking Rocket 4.4 02:06:53 31° E 02:07:35 32° ENE 02:12:06 10° N
Cosmos 1975 Rocket 3.7 02:09:40 36° ENE 02:09:40 36° ENE 02:13:10 10° NNE
Lacrosse 5 3.6 02:08:50 10° N 02:12:23 19° NE 02:13:41 17° ENE
Cosmos 2333 Rocket 3.7 02:14:46 20° ENE 02:14:46 20° ENE 02:17:14 10° NE
MetOp-B 4.4 02:13:57 42° ESE 02:15:01 49° ENE 02:20:09 10° N
Cosmos 407 Rocket 4.1 02:11:39 10° NNW 02:16:46 53° WSW 02:19:18 28° SSW
Fermi 3.7 02:15:33 10° W 02:19:27 72° SSW 02:19:27 72° SSW
Cosmos 1331 Rocket 4.2 02:22:28 47° E 02:22:28 47° E 02:27:12 10° NNE
Cosmos 2219 Rocket 3.8 02:29:35 19° ENE 02:29:35 19° ENE 02:31:44 10° NE
Cosmos 1190 Rocket 4.5 02:23:59 10° NNW 02:29:10 56° WSW 02:30:55 38° SSW
Landsat 7 3.7 02:29:04 68° S 02:29:42 88° W 02:34:28 10° NNW
SPOT 3 Rocket 3.5 02:34:00 60° S 02:34:56 80° WSW 02:40:07 10° NNW
ARIANE 5 R/B 3.9 02:36:13 29° NE 02:36:13 29° NE 02:39:07 10° N
Cosmos 1674 4.0 02:41:22 34° N 02:41:22 34° N 02:43:34 10° N
ATLAS 3B R/B 2.4 02:39:16 56° SSE 02:40:22 64° ESE 02:46:52 10° NE
Cosmos 1470 3.6 02:38:14 10° NNW 02:41:53 45° W 02:41:53 45° W
SL-16 R/B 4.4 02:43:19 10° WSW 02:47:46 23° WNW 02:52:14 10° NNW
Cosmos 2360 Rocket 2.6 02:45:17 23° SW 02:48:47 59° WNW 02:54:21 10° N
Cosmos 1153 Rocket 4.4 02:43:22 10° N 02:49:40 90° W 02:50:39 66° S
Cosmos 2322 Rocket 4.0 02:45:26 10° SW 02:50:21 30° WNW 02:55:18 10° N
ASTRO E2 4.4 02:47:08 10° W 02:49:07 28° W 02:49:07 28° W
Cosmos 1315 Rocket 4.0 02:50:05 10° NNW 02:53:31 40° WNW 02:53:31 40° WNW
Delta 128 4.3 02:52:58 10° W 02:56:22 51° WNW 02:56:22 51° WNW
COSMOS 2428 4.0 03:06:54 29° NE 03:06:54 29° NE 03:09:52 10° NNE
Cosmos 1726 4.5 03:02:08 10° NW 03:04:15 19° WNW 03:04:15 19° WNW
Cosmos 2322 4.0 03:08:15 58° NNE 03:08:15 58° NNE 03:12:44 10° NNE
Cosmos 1455 Rocket 4.3 03:02:39 10° N 03:05:24 37° N 03:05:24 37° N
Meteor 1-16 Rocket 4.4 03:03:01 10° N 03:07:26 59° NNE 03:07:26 59° NNE
Cosmos 2100 Rocket 3.9 03:02:47 10° N 03:08:59 78° ENE 03:08:59 78° ENE
USA 215 3.3 03:05:50 10° NE 03:12:20 73° NW 03:18:50 10° SW
Lacrosse 5 rocket 4.0 03:11:16 10° W 03:13:34 16° NW 03:15:50 10° N
BREEZE-M DEB (TANK) 4.3 03:04:23 10° NW 03:13:12 48° WSW 03:13:12 48° WSW
Cosmos 2173 Rocket 4.1 03:21:59 10° N 03:28:00 73° WNW 03:28:00 73° WNW
SPOT 5 3.9 03:30:02 48° NNW 03:30:02 48° NNW 03:33:39 10° NNW
Cosmos 2016 Rocket 4.4 03:25:10 10° N 03:29:58 55° NNE 03:29:58 55° NNE
Cosmos 1844 Rocket 3.6 03:30:18 10° N 03:34:17 44° N 03:34:17 44° N
Terra 3.4 03:41:40 31° NNW 03:41:40 31° NNW 03:44:09 10° NNW
Cosmos 1725 Rocket 4.5 03:36:41 10° N 03:41:21 53° NNE 03:41:21 53° NNE
Cosmos 2263 Rocket 4.5 03:45:37 10° WNW 03:48:23 14° W 03:48:33 14° W
Lacrosse 5 3.8 03:50:39 10° NW 03:52:53 25° WNW 03:52:53 25° WNW
Cosmos 2333 Rocket 3.6 03:56:42 33° WNW 03:56:45 33° WNW 04:01:54 10° N
Cosmos 2219 Rocket 3.8 04:11:14 29° WNW 04:11:14 29° WNW 04:15:45 10° N
ATLAS CENTAUR R/B 4.3 04:10:01 10° N 04:10:56 15° N 04:10:56 15° N
Cosmos 2237 Rocket 4.1 04:29:30 24° NNE 04:29:30 24° NNE 04:31:38 10° NNE
Cosmos 2278 Rocket 4.1 05:03:25 10° N 05:05:45 25° N 05:05:45 25° N
USA 267 4.5 05:21:42 34° NE 05:21:42 34° NE 05:27:19 10° NNW
Cosmos 1943 Rocket 4.4 05:47:47 10° NNE 05:50:15 19° NE 05:50:15 19° NE
SL-16 R/B 4.2 06:07:45 23° NNW 06:07:45 23° NNW 06:10:11 10° N
CZ-2D R/B 4.4 06:09:03 10° NE 06:10:33 17° NE 06:10:33 17° NE
SL-16 R/B 4.2 06:26:24 24° ENE 06:26:57 24° ENE 06:31:44 10° NNE
SJ 16-02 4.5 06:24:42 10° N 06:24:49 11° N 06:24:49 11° N
Cosmos 2369 Rocket 4.1 06:27:10 10° N 06:31:22 24° ENE 06:31:22 24° ENE
Cosmos 1937 Rocket 4.3 07:28:59 10° N 07:32:59 50° NNE 07:32:59 50° NNE
Cosmos 1943 Rocket 4.3 07:30:43 10° NW 07:31:43 15° NW 07:31:43 15° NW
Resurs 1-4 Rocket 3.7 07:39:26 10° NNW 07:42:25 25° NW 07:42:25 25° NW
CZ-2D R/B 3.8 07:49:12 10° NNW 07:51:52 21° NW 07:51:52 21° NW
Delta 198 4.5 07:54:07 66° SE 07:54:07 66° SE 08:00:33 10° E
ADEOS II 2.7 07:56:15 10° N 08:00:27 44° NW 08:00:27 44° NW
Cosmos 2026 Rocket 4.3 08:02:46 50° WNW 08:02:46 50° WNW 08:08:31 10° N
SL-16 R/B 3.3 08:11:29 35° WNW 08:11:29 35° WNW 08:15:56 10° NNW
SeaSat 1 2.6 08:05:39 10° NNE 08:10:13 61° NW 08:10:13 61° NW
Cosmos 836 Rocket 4.4 08:12:21 74° SSE 08:12:45 80° ESE 08:18:02 10° NNE
ARIANE 5 R/B 3.1 08:07:56 10° NNE 08:12:46 48° E 08:13:52 41° SE
Cosmos 2369 Rocket 3.7 08:10:42 10° NW 08:13:05 22° WNW 08:13:05 22° WNW
Meteor 1-28 Rocket 4.3 08:18:35 39° NNW 08:18:35 39° NNW 08:21:02 10° NNW
Cosmos 372 Rocket 3.8 08:12:35 10° NNW 08:17:49 80° WSW 08:18:05 77° SW
USA 281 4.0 08:11:43 10° SE 08:18:00 51° ENE 08:24:19 10° N
Meteor 2-14 Rocket 4.3 08:16:48 58° S 08:18:08 87° W 08:24:15 10° N
ASC 2 Rocket 3.5 08:19:41 53° SE 08:19:41 53° SE 08:23:06 10° E
CZ-4C R/B 2.1 08:19:33 51° SE 08:19:55 53° ESE 08:24:48 10° NE
IDEFIX/ARIANE 42P 2.5 08:15:32 10° N 08:20:42 64° WNW 08:20:56 63° W
Cosmos 1656 Rocket 4.1 08:16:25 10° NNW 08:20:53 44° WNW 08:20:53 44° WNW
GPS 2-04 Rocket1 4.5 08:23:33 23° NNW 08:24:19 24° N 08:27:29 10° NE
IRS-1C 4.0 08:20:54 10° NNE 08:26:15 88° WNW 08:27:23 57° SSW
CZ-4B R/B 3.7 08:22:18 10° NNE 08:27:32 70° ESE 08:29:06 44° S
IRIDIUM 106 4.2 08:22:48 10° N 08:28:01 80° W 08:29:01 59° SSW
ATLAS 5 CENTAUR R/B 3.8 08:29:31 12° NW 08:29:31 12° NW 08:30:34 10° NNW
Cosmos 1766 Rocket 3.6 08:35:18 59° WNW 08:35:18 59° WNW 08:39:36 10° N
Cosmos 1833 Rocket 3.9 08:33:11 19° SSE 08:36:36 37° ESE 08:41:43 10° NE
Okean 3 Rocket 3.6 08:36:47 58° W 08:36:47 58° W 08:41:03 10° N
Cosmos 2266 Rocket 3.9 08:34:25 33° S 08:37:26 84° E 08:43:32 10° N
ADEOS Rocket 3.6 08:35:06 37° SSW 08:37:34 50° W 08:44:28 10° NNW
Cosmos 1408 Rocket 3.7 08:39:11 41° SSE 08:40:35 69° E 08:45:01 10° N
OAO 3 Rocket 3.8 08:40:27 38° SSE 08:41:00 40° SSE 08:45:29 10° E
Spot 4 Rocket 4.4 08:40:16 10° NNE 08:45:21 62° ESE 08:48:20 25° S
Tianhe-1 1.3 08:48:30 68° ENE 08:48:30 68° ENE 08:51:18 10° ENE
Cosmos 1151 Rocket 2.8 08:45:39 10° N 08:49:54 88° WSW 08:51:39 35° S
Cosmos 1655 Rocket 4.0 08:48:37 34° SSW 08:51:16 62° W 08:57:25 10° N
IUS-17 SRM-1 4.4 08:40:36 20° WSW 08:53:19 80° SSE 08:57:23 10° E
RUBIN 8/PSLV 4.5 08:49:12 10° N 08:53:26 69° WNW 08:54:36 45° SW
Cosmos 2082 Rocket 4.2 08:49:11 10° SSE 08:53:28 23° ESE 08:57:46 10° NE
Spot 1 4.4 08:53:43 25° S 08:56:41 65° WSW 09:01:42 10° NNW
CZ-4C R/B 3.7 08:57:27 37° WNW 08:57:27 37° WNW 09:00:04 10° NNW
PAYLOAD A 4.2 08:52:09 10° NNE 08:57:14 72° ESE 09:00:58 20° S
ASTEX 1 3.6 08:57:11 36° SW 08:58:43 49° W 09:03:31 10° NNW
Cosmos 44 4.0 08:55:53 23° S 08:58:55 52° ESE 09:04:05 10° NE
Alouette 2 Rocket 3.4 08:58:27 10° NNW 09:02:12 74° W 09:07:09 10° S
ATLAS 2A CENTAUR R/B 3.2 09:04:34 16° SSE 09:04:34 16° SSE 09:06:56 10° SE
Cosmos 1782 3.1 09:00:04 10° NNW 09:03:53 45° W 09:04:36 40° SW
Cosmos 783 Rocket 4.4 09:02:51 29° SSW 09:05:36 75° WNW 09:10:50 10° N
COSMOS 2406 3.3 09:04:17 19° S 09:08:23 74° ESE 09:14:02 10° NNE
ALOS 3.2 09:04:42 10° NNE 09:09:11 46° E 09:13:38 10° S
CZ-2C R/B 2.9 09:05:33 10° NNE 09:09:22 70° ESE 09:11:48 21° S
Lacrosse 4 Rocket 1.2 09:07:10 10° NNW 09:11:10 66° WSW 09:15:09 10° SSE
Cosmos 1812 2.6 09:15:07 10° N 09:18:56 71° W 09:22:19 13° S
Chandra Rocket (1) 2.5 09:13:17 19° WSW 09:19:08 75° SSE 09:22:34 10° E
Cosmos 2298 Rocket 4.3 09:15:37 10° NNW 09:20:42 47° WSW 09:25:46 10° S
Cosmos 773 Rocket 4.0 09:17:36 20° SSW 09:21:12 66° WNW 09:26:28 10° N
Cosmos 1805 Rocket 4.2 09:18:22 10° S 09:22:35 54° E 09:26:51 10° NNE
Cosmos 1271 Rocket 3.0 09:21:34 10° NNW 09:25:06 41° W 09:27:25 19° SSW
PSLV R/B 3.8 09:22:49 10° NNE 09:27:11 71° ESE 09:31:31 10° S
Cosmos 2315 Rocket 4.0 09:23:39 10° N 09:29:52 87° W 09:36:04 10° S
Nadezhda 2 Rocket 4.4 09:25:46 10° S 09:31:52 88° W 09:37:59 10° N
Milstar 3 Cent rocket 4.4 09:11:33 10° W 09:33:39 84° N 09:43:08 10° E
Centaur AC-125 2.0 09:32:23 18° W 09:34:05 82° S 09:39:51 10° E
Cosmos 1538 Rocket 4.1 09:32:21 10° S 09:37:43 83° ESE 09:43:04 10° NNE
Cosmos 1500 Rocket 4.1 09:38:13 14° SSW 09:41:32 38° W 09:45:34 10° NNW
CZ-2C R/B 3.1 09:39:17 10° N 09:43:44 36° WNW 09:47:44 12° SW
Cosmos 1743 Rocket 4.2 09:41:25 13° SW 09:44:50 36° W 09:48:52 10° NNW
SL-08 R/B 4.1 09:42:49 10° SSW 09:46:50 30° W 09:50:53 10° NW
Meteor 1-10 Rocket 4.3 09:43:33 10° NNW 09:49:18 62° W 09:54:54 10° S
Cosmos 1125 Rocket 4.2 09:44:47 10° NW 09:49:24 32° W 09:54:02 10° SSW
GPS 2-17 Rocket1 4.4 09:48:12 13° WSW 09:51:04 22° SSW 09:54:41 10° SE
ARIANE 5 R/B 4.4 09:49:07 10° NW 09:51:23 13° WNW 09:53:39 10° W
CZ-2C R/B 0.7 09:52:06 13° WSW 09:55:03 73° SSE 09:58:17 10° ENE
Cosmos 2228 Rocket 3.2 09:51:26 10° N 09:55:55 82° E 10:00:21 10° S
NOSS 3-4 (A) 3.4 09:51:21 10° SW 09:57:05 69° WNW 10:03:01 10° NNE
NOSS 3-4 (C) 3.3 09:51:28 10° SW 09:57:13 70° WNW 10:03:08 10° NNE
Cosmos 1656 3.9 09:52:04 10° NNW 09:57:47 81° ENE 10:03:25 10° SSE
Gbstr 26 Del rocket 3.4 09:55:30 10° SW 10:00:00 81° NW 10:05:40 10° NE
USA 281 4.3 09:57:51 10° SSW 10:02:34 21° WSW 10:07:19 10° WNW
Cosmos 1666 Rocket 3.9 09:58:57 10° S 10:03:17 70° E 10:07:35 10° N
FALCON 9 DEB 3.6 10:04:08 10° NW 10:07:30 65° NE 10:10:50 10° SE
ATLAS 2AS CENTAUR R/B 3.3 09:59:53 10° SSW 10:07:38 73° ESE 10:15:31 10° NNE
Meteor 1-27 Rocket 3.7 10:02:21 10° NNW 10:07:51 71° W 10:13:19 10° S
CZ-4C R/B 3.9 10:06:47 10° WNW 10:08:52 13° NW 10:11:04 10° NNW
BREEZE-M DEB (TANK) 4.4 10:07:00 10° NW 10:21:55 63° SW 10:26:02 10° SSE
